Overview Statistics Trail Chart Weather Telemetry Raw packets
 

This is the latest recevied weather packets stored in our database for station/object N7ZAP. If no packets are shown the sender has not sent any weather packets the latest 10 day(s).

<< 92 93 94 95 96 97 98 >>
Time Temp. Humidity Pressure Rain* Wind** Luminosity Snow
1788009425 20° C 49% 1023.8 hPa 0 mm - - -
1788009120 20° C 49% 1023.9 hPa 0 mm - - -
1788008815 20.56° C 50% 1024 hPa 0 mm - - -
1788008514 20.56° C 49% 1023.8 hPa 0 mm - - -
1788008212 20.56° C 48% 1023.8 hPa 0 mm - - -
1788007910 20.56° C 48% 1023.9 hPa 0 mm - - -
1788007610 20.56° C 46% 1023.9 hPa 0 mm - - -
1788007310 21.11° C 46% 1023.8 hPa 0 mm - - -
1788007009 21.11° C 46% 1023.6 hPa 0 mm - - -
1788006704 21.11° C 46% 1023.5 hPa 0 mm - - -
1788006399 21.67° C 45% 1023.4 hPa 0 mm - - -
1788006098 22.22° C 43% 1023.6 hPa 0 mm - - -
1788005798 22.22° C 42% 1023.3 hPa 0 mm - - -
1788005493 22.78° C 40% 1023.3 hPa 0 mm - - -
1788005192 22.78° C 40% 1023 hPa 0 mm - - -
1788004886 22.78° C 40% 1023.2 hPa 0 mm - - -
1788004586 22.78° C 39% 1023.1 hPa 0 mm - - -
1788004280 23.33° C 38% 1023.2 hPa 0 mm - - -
1788003979 23.89° C 37% 1023.3 hPa 0 mm - - -
1788003678 24.44° C 37% 1023.1 hPa 0 mm - - -
1788003373 24.44° C 36% 1023.2 hPa 0 mm - - -
1788003068 25° C 35% 1023.3 hPa 0 mm - - -
1788002767 25° C 35% 1023.3 hPa 0 mm - - -
1788002463 24.44° C 36% 1023.2 hPa 0 mm - - -
1788002158 24.44° C 37% 1023.1 hPa 0 mm - - -

* Rain latest hour (hover to see other rain measurements)
** Current wind speed in m/s (hover to see current wind gust speed)